�N����,����,�~����,�C��,���x,�C��,����,���ϕ���,�ő�u�ԕ���,�ő厞����,���˗�,�I�_���x,�n�����x,�ő啗���N��,DTYPE
"16/10/14","00:10",0.0,12.5,85.8,1017.1,310.4,1.3,1.8,316.4,0.00,10.2,17.9,"00:03:04",1
"16/10/14","00:20",0.0,12.4,86.5,1016.6,316.7,1.3,2.0,332.4,0.00,10.3,18.0,"00:12:42",1
"16/10/14","00:30",0.0,12.5,86.5,1016.8,317.0,1.5,1.8,337.4,0.00,10.4,18.0,"00:21:12",1
"16/10/14","00:40",0.0,12.4,86.4,1017.3,325.9,1.6,2.7,332.9,0.00,10.2,18.0,"00:34:06",1
"16/10/14","00:50",0.0,12.6,85.7,1016.6,335.0,1.5,2.2,348.1,0.00,10.3,18.0,"00:42:10",1
"16/10/14","01:00",0.0,12.7,85.0,1016.8,344.7,1.3,2.4,354.8,0.00,10.3,17.9,"00:57:30",1
"16/10/14","01:10",0.0,12.7,84.7,1016.8,310.8,1.1,1.9,338.9,0.00,10.2,17.9,"01:01:04",1
"16/10/14","01:20",0.0,12.6,85.9,1016.6,309.2,1.2,1.8,325.1,0.00,10.3,17.7,"01:11:06",1
"16/10/14","01:30",0.0,12.5,86.5,1016.6,317.8,1.5,2.4,331.5,0.00,10.4,17.5,"01:28:02",1
"16/10/14","01:40",0.0,12.6,86.2,1016.6,332.6,1.5,2.4,329.7,0.00,10.4,17.8,"01:38:22",1
"16/10/14","01:50",0.0,12.7,85.9,1016.8,321.4,1.3,3.5,0.9,0.00,10.4,17.6,"01:41:12",1
"16/10/14","02:00",0.0,12.8,85.3,1016.8,315.8,1.5,2.6,349.3,0.00,10.4,17.4,"01:50:02",1
"16/10/14","02:10",0.0,12.8,85.1,1016.6,306.8,1.3,3.2,342.0,0.00,10.4,17.4,"02:00:28",1
"16/10/14","02:20",0.0,12.9,84.8,1016.8,312.3,1.5,2.2,328.2,0.00,10.4,17.5,"02:15:46",1
"16/10/14","02:30",0.0,12.9,84.7,1016.8,326.7,1.7,2.6,342.9,0.00,10.4,17.6,"02:26:42",1
"16/10/14","02:40",0.0,12.7,85.3,1016.6,319.1,1.5,2.5,340.0,0.00,10.3,17.6,"02:31:12",1
"16/10/14","02:50",0.0,12.5,85.8,1016.6,325.6,1.5,2.1,341.0,0.00,10.2,17.4,"02:44:36",1
"16/10/14","03:00",0.0,12.5,86.2,1016.8,323.7,1.6,2.9,337.8,0.00,10.3,17.1,"02:59:06",1
"16/10/14","03:10",0.0,12.3,86.7,1016.6,308.4,1.3,2.4,331.5,0.00,10.2,17.3,"03:00:34",1
"16/10/14","03:20",0.0,12.2,87.5,1016.8,307.0,1.3,1.8,316.0,0.00,10.2,17.4,"03:12:26",1
"16/10/14","03:30",0.0,12.2,88.3,1017.1,305.5,1.2,1.6,310.3,0.00,10.4,17.4,"03:22:48",1
"16/10/14","03:40",0.0,12.2,88.7,1016.8,301.3,1.1,1.7,315.4,0.00,10.4,17.3,"03:38:24",1
"16/10/14","03:50",0.0,12.3,88.6,1016.8,304.1,1.1,1.9,329.2,0.00,10.5,17.1,"03:47:36",1
"16/10/14","04:00",0.0,12.4,88.0,1017.1,294.8,0.8,1.3,326.1,0.00,10.5,17.4,"03:52:32",1
"16/10/14","04:10",0.0,12.5,87.8,1017.1,307.7,1.1,2.2,324.7,0.00,10.6,17.4,"04:01:28",1
"16/10/14","04:20",0.0,12.3,88.2,1016.8,282.9,0.7,1.0,269.0,0.00,10.4,17.1,"04:18:00",1
"16/10/14","04:30",0.0,12.0,88.9,1017.1,278.7,0.3,0.8,272.9,0.00,10.3,17.3,"04:28:16",1
"16/10/14","04:40",0.0,11.9,89.8,1017.1,313.4,0.3,1.2,300.0,0.00,10.3,17.1,"04:38:16",1
"16/10/14","04:50",0.0,12.0,90.1,1016.8,310.1,0.7,1.4,314.5,0.00,10.5,17.4,"04:49:36",1
"16/10/14","05:00",0.0,12.0,90.2,1017.1,290.3,1.1,1.3,293.6,0.00,10.5,17.2,"04:58:32",1
"16/10/14","05:10",0.0,12.0,90.5,1017.3,313.7,1.1,1.9,308.0,0.00,10.5,17.1,"05:02:58",1
"16/10/14","05:20",0.0,12.1,90.3,1017.3,303.1,1.1,1.6,330.3,0.00,10.6,17.1,"05:10:08",1
"16/10/14","05:30",0.0,11.8,90.7,1017.3,293.7,0.7,1.0,312.6,0.00,10.4,17.0,"05:28:16",1
"16/10/14","05:40",0.0,11.6,91.3,1017.1,290.1,0.7,1.2,326.5,0.00,10.3,16.9,"05:38:52",1
"16/10/14","05:50",0.0,11.4,92.1,1017.5,302.7,1.1,1.8,322.3,0.00,10.2,17.1,"05:48:14",1
"16/10/14","06:00",0.0,11.3,92.7,1017.5,300.2,1.1,1.9,316.3,0.00,10.2,17.1,"05:54:32",1
"16/10/14","06:10",0.0,11.2,93.3,1017.8,283.7,0.8,1.4,310.4,0.00,10.2,17.0,"06:04:04",1
"16/10/14","06:20",0.0,11.4,93.4,1017.5,290.0,1.0,1.6,333.8,0.00,10.4,16.8,"06:10:58",1
"16/10/14","06:30",0.0,11.7,93.0,1017.5,299.9,1.1,1.9,324.8,0.00,10.6,17.0,"06:27:06",1
"16/10/14","06:40",0.0,11.9,92.6,1017.8,308.4,1.2,1.9,309.8,0.00,10.8,16.8,"06:38:26",1
"16/10/14","06:50",0.0,12.2,92.3,1017.8,316.5,1.6,2.2,325.0,0.00,11.0,17.0,"06:48:56",1
"16/10/14","07:00",0.0,12.4,91.3,1018.5,319.0,1.5,2.4,336.6,0.00,11.1,16.8,"06:56:32",1
"16/10/14","07:10",0.0,12.6,90.3,1018.2,313.8,1.3,1.9,337.6,0.01,11.1,17.1,"07:03:28",1
"16/10/14","07:20",0.0,13.0,89.4,1018.5,300.9,1.0,2.4,340.4,0.02,11.3,16.9,"07:11:36",1
"16/10/14","07:30",0.0,13.2,87.9,1018.7,298.7,0.7,1.0,319.5,0.03,11.3,17.0,"07:24:16",1
"16/10/14","07:40",0.0,13.6,87.1,1019.0,308.0,0.7,1.3,313.2,0.05,11.5,17.0,"07:34:56",1
"16/10/14","07:50",0.0,14.0,85.7,1019.2,319.3,1.1,1.8,317.4,0.06,11.7,17.3,"07:45:44",1
"16/10/14","08:00",0.0,14.3,85.5,1019.2,327.9,1.1,2.0,334.2,0.07,11.9,17.1,"07:50:16",1
"16/10/14","08:10",0.0,14.5,83.1,1019.2,326.1,1.3,2.4,333.2,0.08,11.7,17.3,"08:05:12",1
"16/10/14","08:20",0.0,14.8,81.4,1019.0,325.1,1.6,2.1,337.8,0.11,11.7,17.3,"08:16:56",1
"16/10/14","08:30",0.0,15.0,80.4,1019.2,340.1,1.1,2.2,327.6,0.10,11.7,17.3,"08:20:16",1
"16/10/14","08:40",0.0,15.1,81.5,1019.4,289.5,1.1,1.8,332.3,0.11,12.0,17.7,"08:31:44",1
"16/10/14","08:50",0.0,15.5,80.8,1019.4,314.2,1.1,1.7,343.3,0.12,12.3,17.5,"08:45:04",1
"16/10/14","09:00",0.0,15.7,78.4,1019.2,286.5,0.7,1.3,332.0,0.14,12.0,17.8,"08:58:24",1
"16/10/14","09:10",0.0,16.7,77.2,1019.7,298.5,0.7,2.0,340.9,0.18,12.7,17.9,"09:08:08",1
"16/10/14","09:20",0.0,16.7,74.6,1019.2,309.7,0.8,2.5,350.7,0.17,12.2,18.0,"09:16:00",1
"16/10/14","09:30",0.0,16.2,76.3,1019.4,243.7,1.1,2.0,203.9,0.15,12.1,18.1,"09:24:32",1
"16/10/14","09:40",0.0,16.5,74.1,1019.2,305.2,1.0,2.2,340.2,0.15,11.9,18.2,"09:36:48",1
"16/10/14","09:50",0.0,16.8,73.4,1019.2,313.9,0.6,1.7,335.7,0.16,12.1,18.1,"09:42:24",1
"16/10/14","10:00",0.0,17.4,73.9,1019.2,336.1,0.7,2.0,339.2,0.18,12.7,18.3,"09:54:08",1
"16/10/14","10:10",0.0,17.4,72.0,1019.2,286.0,0.6,1.4,248.2,0.17,12.3,18.5,"10:01:28",1
"16/10/14","10:20",0.0,17.5,72.3,1019.0,257.8,1.0,1.9,236.9,0.19,12.5,18.6,"10:18:00",1
"16/10/14","10:30",0.0,18.1,68.8,1019.0,326.7,1.1,2.7,340.4,0.20,12.3,18.6,"10:24:48",1
"16/10/14","10:40",0.0,18.2,68.0,1018.7,299.9,0.7,1.4,322.1,0.18,12.2,18.6,"10:32:24",1
"16/10/14","10:50",0.0,18.6,68.4,1018.7,299.3,0.7,1.8,2.2,0.21,12.7,18.8,"10:43:44",1
"16/10/14","11:00",0.0,19.4,62.3,1018.2,336.4,1.0,2.4,350.1,0.38,12.1,18.9,"10:51:36",1
"16/10/14","11:10",0.0,19.2,62.2,1017.8,350.5,0.6,1.4,219.4,0.28,11.8,19.1,"11:09:44",1
"16/10/14","11:20",0.0,19.0,63.6,1018.0,229.0,1.0,1.9,214.3,0.23,12.0,19.1,"11:16:00",1
"16/10/14","11:30",0.0,19.3,63.9,1017.5,243.8,0.6,1.1,234.8,0.22,12.3,19.5,"11:20:56",1
"16/10/14","11:40",0.0,19.4,62.2,1017.8,212.8,0.5,1.1,190.6,0.24,12.0,19.6,"11:32:16",1
"16/10/14","11:50",0.0,19.6,64.0,1017.3,141.6,0.5,1.3,85.9,0.24,12.7,19.6,"11:41:52",1
"16/10/14","12:00",0.0,19.4,62.6,1017.8,141.3,0.3,1.1,147.7,0.20,12.1,19.7,"11:50:08",1
"16/10/14","12:10",0.0,19.9,59.3,1017.5,33.3,0.6,1.3,37.3,0.33,11.8,19.9,"12:08:48",1
"16/10/14","12:20",0.0,20.1,60.4,1017.3,173.6,0.3,1.2,347.2,0.29,12.2,19.9,"12:11:04",1
"16/10/14","12:30",0.0,20.6,56.7,1016.8,155.6,0.5,1.6,103.5,0.33,11.8,20.0,"12:21:04",1
"16/10/14","12:40",0.0,21.4,58.2,1016.8,248.2,1.0,2.1,187.3,0.44,12.9,20.4,"12:37:20",1
"16/10/14","12:50",0.0,21.3,55.5,1016.6,208.4,1.5,4.2,219.4,0.46,12.1,20.5,"12:41:52",1
"16/10/14","13:00",0.0,21.4,54.7,1016.4,236.0,0.7,2.2,193.2,0.38,12.0,20.5,"12:56:08",1
"16/10/14","13:10",0.0,21.5,55.0,1015.9,224.5,0.7,2.4,193.8,0.33,12.1,20.7,"13:04:00",1
"16/10/14","13:20",0.0,22.3,53.3,1015.9,259.0,0.3,2.1,229.6,0.36,12.4,21.0,"13:14:32",1
"16/10/14","13:30",0.0,22.0,52.2,1015.6,316.3,0.5,1.1,359.9,0.28,11.8,20.9,"13:23:36",1
"16/10/14","13:40",0.0,22.0,54.0,1015.6,210.3,0.7,1.8,214.5,0.26,12.3,21.2,"13:35:28",1
"16/10/14","13:50",0.0,21.8,54.0,1015.4,192.0,0.6,1.7,200.4,0.24,12.1,21.2,"13:44:40",1
"16/10/14","14:00",0.0,21.9,53.9,1015.6,235.5,1.1,2.7,227.3,0.29,12.2,21.4,"13:52:48",1
"16/10/14","14:10",0.0,22.4,54.5,1015.2,247.1,1.0,2.7,225.3,0.33,12.8,21.5,"14:00:02",1
"16/10/14","14:20",0.0,22.4,55.3,1015.2,167.0,0.6,2.7,230.7,0.31,13.0,21.5,"14:10:08",1
"16/10/14","14:30",0.0,22.0,54.8,1015.2,231.0,0.7,1.8,228.5,0.18,12.5,21.7,"14:25:04",1
"16/10/14","14:40",0.0,21.8,56.4,1015.2,221.6,1.2,2.9,231.8,0.21,12.8,21.5,"14:38:08",1
"16/10/14","14:50",0.0,22.5,51.3,1015.2,315.6,0.6,1.7,233.1,0.27,12.0,21.8,"14:40:24",1
"16/10/14","15:00",0.0,21.8,57.0,1015.4,256.2,0.7,2.7,225.9,0.15,13.0,21.5,"14:53:36",1
"16/10/14","15:10",0.0,21.8,56.6,1015.4,226.2,1.3,2.7,231.3,0.16,12.8,21.5,"15:02:56",1
"16/10/14","15:20",0.0,21.3,59.8,1015.2,273.5,0.6,1.8,237.2,0.11,13.2,21.5,"15:10:24",1
"16/10/14","15:30",0.0,21.1,60.5,1015.9,215.6,0.5,1.2,113.5,0.09,13.2,21.3,"15:23:12",1
"16/10/14","15:40",0.0,20.9,57.7,1015.6,234.2,0.8,1.9,256.3,0.08,12.3,21.5,"15:39:04",1
"16/10/14","15:50",0.0,21.3,56.0,1016.1,238.5,1.5,2.5,229.3,0.04,12.2,21.4,"15:46:32",1
"16/10/14","16:00",0.0,21.0,63.1,1016.4,259.0,1.0,1.9,243.9,0.04,13.8,21.3,"15:52:16",1
"16/10/14","16:10",0.0,20.8,58.5,1016.6,248.7,1.2,2.2,235.8,0.03,12.4,21.3,"16:03:44",1
"16/10/14","16:20",0.0,20.8,61.3,1016.4,273.3,1.0,2.1,234.2,0.01,13.1,21.1,"16:11:44",1
"16/10/14","16:30",0.0,20.4,63.9,1016.6,280.0,0.7,1.6,239.6,0.00,13.4,21.1,"16:26:32",1
"16/10/14","16:40",0.0,19.9,66.1,1016.1,302.9,0.8,1.6,332.9,0.02,13.4,20.8,"16:37:20",1
"16/10/14","16:50",0.0,19.3,68.3,1016.4,293.8,0.8,1.2,300.5,0.00,13.4,20.8,"16:46:32",1
"16/10/14","17:00",0.0,18.6,70.2,1016.6,294.5,0.7,1.2,321.2,0.00,13.1,20.8,"16:50:08",1
"16/10/14","17:10",0.0,17.8,72.8,1017.1,296.4,0.6,0.9,281.5,0.00,12.9,20.7,"17:00:08",1
"16/10/14","17:20",0.0,17.2,76.0,1016.8,297.9,0.6,1.1,324.7,0.00,13.0,20.6,"17:17:36",1
"16/10/14","17:30",0.0,16.6,78.5,1017.1,293.6,0.6,1.1,319.0,0.00,12.9,20.2,"17:21:52",1
"16/10/14","17:40",0.0,16.0,81.0,1017.1,286.7,0.7,1.0,297.3,0.00,12.8,20.1,"17:34:32",1
"16/10/14","17:50",0.0,15.5,82.2,1017.1,290.8,0.7,1.1,329.6,0.00,12.5,20.0,"17:44:24",1
"16/10/14","18:00",0.0,15.2,83.4,1017.5,276.0,0.8,1.1,277.4,0.00,12.4,19.8,"17:58:48",1
"16/10/14","18:10",0.0,15.0,83.7,1017.3,280.8,0.7,1.4,315.1,0.00,12.3,19.6,"18:02:08",1
"16/10/14","18:20",0.0,14.8,83.7,1017.5,282.8,0.8,1.2,321.3,0.00,12.1,19.8,"18:15:12",1
"16/10/14","18:30",0.0,14.5,83.7,1017.3,287.7,0.8,1.6,311.9,0.00,11.8,19.7,"18:24:08",1
"16/10/14","18:40",0.0,14.6,83.4,1017.5,271.3,1.0,2.0,240.5,0.00,11.9,19.6,"18:36:08",1
"16/10/14","18:50",0.0,14.6,82.1,1017.8,301.2,0.8,2.0,340.6,0.00,11.6,19.4,"18:46:16",1
"16/10/14","19:00",0.0,14.4,81.9,1018.0,296.7,0.7,1.3,320.4,0.00,11.4,19.4,"18:50:40",1
"16/10/14","19:10",0.0,14.3,82.4,1018.0,282.9,1.0,1.8,257.3,0.00,11.4,19.2,"19:03:36",1
"16/10/14","19:20",0.0,14.1,82.8,1018.2,290.1,0.8,1.3,313.0,0.00,11.3,19.5,"19:10:24",1
"16/10/14","19:30",0.0,14.0,83.3,1018.7,294.4,1.0,1.7,313.1,0.00,11.3,18.9,"19:29:20",1
"16/10/14","19:40",0.0,14.2,81.9,1018.7,310.5,1.3,1.9,307.2,0.00,11.2,18.8,"19:32:00",1
"16/10/14","19:50",0.0,14.4,80.4,1018.2,312.7,1.6,2.1,309.2,0.00,11.1,18.9,"19:44:48",1
"16/10/14","20:00",0.0,14.3,80.3,1018.5,332.3,2.0,3.6,340.9,0.00,11.0,18.7,"19:58:16",1
"16/10/14","20:10",0.0,14.1,80.1,1019.0,334.1,2.0,4.0,340.9,0.00,10.8,18.6,"20:07:04",1
"16/10/14","20:20",0.0,14.0,80.5,1019.0,333.3,1.8,3.6,343.1,0.00,10.7,18.6,"20:13:12",1
"16/10/14","20:30",0.0,13.7,80.6,1019.2,322.3,1.7,3.3,346.0,0.00,10.5,18.7,"20:26:56",1
"16/10/14","20:40",0.0,13.5,80.9,1019.0,324.9,1.6,2.9,341.7,0.00,10.3,18.6,"20:33:44",1
"16/10/14","20:50",0.0,13.4,80.9,1019.4,333.8,2.0,3.1,343.3,0.00,10.2,18.4,"20:42:24",1
"16/10/14","21:00",0.0,13.2,80.9,1019.2,335.2,1.7,2.7,338.7,0.00,10.0,18.6,"20:55:08",1
"16/10/14","21:10",0.0,13.1,80.4,1019.4,332.5,1.7,3.1,352.7,0.00,9.8,18.2,"21:08:10",1
"16/10/14","21:20",0.0,13.1,79.7,1019.7,335.2,1.8,4.0,344.0,0.00,9.7,18.2,"21:19:18",1
"16/10/14","21:30",0.0,12.9,79.9,1019.4,331.6,1.7,2.5,342.2,0.00,9.6,18.2,"21:21:36",1
"16/10/14","21:40",0.0,12.7,80.0,1019.7,330.5,2.0,4.1,335.5,0.00,9.4,18.1,"21:37:44",1
"16/10/14","21:50",0.0,12.8,78.6,1019.4,328.8,2.0,3.7,345.6,0.00,9.2,18.1,"21:48:22",1
"16/10/14","22:00",0.0,12.8,77.0,1019.7,327.3,1.7,3.9,349.7,0.00,8.9,17.9,"21:51:36",1
"16/10/14","22:10",0.0,12.8,76.3,1019.7,324.2,1.6,3.5,347.3,0.00,8.8,17.6,"22:05:22",1
"16/10/14","22:20",0.0,12.7,75.8,1019.9,338.1,2.0,3.5,352.2,0.00,8.6,17.8,"22:16:04",1
"16/10/14","22:30",0.0,12.4,76.3,1020.1,326.2,1.6,3.1,338.7,0.00,8.4,17.6,"22:22:58",1
"16/10/14","22:40",0.0,12.3,76.0,1019.9,322.5,1.7,2.7,328.2,0.00,8.2,17.6,"22:31:58",1
"16/10/14","22:50",0.0,12.2,74.8,1019.9,328.3,1.7,2.8,339.7,0.00,7.9,17.7,"22:46:22",1
"16/10/14","23:00",0.0,12.4,72.1,1019.9,319.5,1.7,2.8,342.7,0.00,7.6,17.4,"22:59:52",1
"16/10/14","23:10",0.0,12.3,73.5,1019.7,328.8,1.8,3.2,346.2,0.00,7.7,17.5,"23:02:10",1
"16/10/14","23:20",0.0,12.3,75.4,1019.9,316.4,1.7,2.4,357.8,0.00,8.1,17.4,"23:12:00",1
"16/10/14","23:30",0.0,12.4,75.3,1019.7,312.0,1.7,2.5,321.8,0.00,8.2,17.3,"23:29:16",1
"16/10/14","23:40",0.0,12.3,75.7,1020.1,315.5,1.6,2.4,326.8,0.00,8.2,17.1,"23:33:52",1
"16/10/14","23:50",0.0,11.9,74.2,1019.7,330.4,1.7,2.9,345.3,0.00,7.5,17.1,"23:47:30",1
"16/10/14","24:00",0.0,11.5,75.8,1019.9,325.0,1.5,3.3,353.0,0.00,7.4,17.2,"23:58:06",1
